[[{"header":{"parameterUnit":"m.s-1","parameterCategory":1,"la1":30.2991,"la2":30.254,"lo1":-89.0895,"lo2":-89.0444,"dy":0.0017,"dx":0.0017,"nx":28,"ny":28,"refTime":"2024-07-15T21:00:00:Z","depth":0,"parameterNumber":2,"parameterNumberName":"U-component_of_WINDS"},"data":[0,0,0,0,0,0,0,0,0,0,0,0,0,0,0,0,0,0,0,0,0,0,0,0,0,0,0,0,0,0,0,0,0,0,0,0,0,0,0,0,0,0,0,0,0,0,0,0,0,0,0,0,0,0,0,0,0,0,3.418,3.4181,0,3.4204,3.4204,3.4205,3.4097,3.4094,3.4091,3.4088,3.4115,3.4118,3.4122,0,0,0,0,0,0,0,0,0,0,0,0,0,3.4043,3.4046,3.418,3.4181,3.4181,3.4204,3.4204,3.4205,3.4098,3.4094,3.409,3.4087,3.4114,3.4118,3.4122,0,0,0,0,0,0,0,0,0,0,0,0,0,3.4088,3.4047,3.418,3.413,3.4126,3.4204,3.4204,3.4205,3.4099,3.4094,3.4089,3.4085,3.4112,3.4117,3.4123,3.425,0,0,3.4139,3.4142,0,0,0,0,0,0,0,0,3.4086,3.4093,3.4137,3.4134,3.4129,3.4143,3.4165,3.422,3.41,3.4109,3.4088,3.4083,3.4128,3.4132,3.4147,3.4251,3.4253,3.414,3.4143,3.4145,3.4147,0,0,0,0,0,0,0,3.4083,3.4092,3.419,3.4138,3.4133,3.4107,3.4108,3.4175,3.4145,3.4108,3.41,3.4105,3.4125,3.4142,3.4147,3.4253,3.414,3.4145,3.4148,3.415,3.446,3.4465,0,0,0,0,0,0,3.4086,3.409,3.4189,3.419,3.4096,3.4113,3.4115,3.4143,3.4144,3.4139,3.4109,3.4099,3.4135,3.414,3.4147,3.4294,3.4145,3.4151,3.4154,3.4455,3.4461,3.4467,0,0,0,0,0,0,3.4084,3.4096,3.4188,3.4138,3.4148,3.4121,3.4154,3.4146,3.4163,3.4144,3.4138,3.4131,3.4131,3.4139,3.4224,3.4293,3.4153,3.4158,3.4449,3.4457,3.4464,3.459,0,0,0,0,0,0,3.408,3.4096,3.4144,3.414,3.4151,3.4266,3.4158,3.415,3.4172,3.4161,3.4164,3.416,3.4128,3.4217,3.423,3.4298,3.4162,3.4443,3.4453,3.4462,3.458,3.4601,3.462,0,0,0,0,0,3.4076,3.418,3.4147,3.416,3.4211,3.427,3.4276,3.4237,3.4178,3.4226,3.4214,3.416,3.4284,3.4227,3.424,3.4311,3.4438,3.445,3.4461,3.4571,3.4597,3.4619,0,0,0,0,0,0,3.4195,3.4179,3.4142,3.4248,3.4261,3.4251,3.4311,3.4266,3.4296,3.4284,3.4235,3.4237,3.433,3.4329,3.4266,3.4433,3.4351,3.4366,3.443,3.4455,3.4474,3.4472,3.4167,0,0,0,0,0,3.4233,3.4282,3.4266,3.4361,3.4369,3.4339,3.4363,3.4332,3.4343,3.4349,3.4342,3.4356,3.4397,3.4426,3.4464,3.4579,3.4577,3.4635,3.4655,3.4671,3.4684,3.4742,3.4767,3.4503,3.4503,3.4503,0,0,3.4314,3.4311,3.4345,3.4385,3.4391,3.4442,3.4345,3.4404,3.4441,3.4358,3.4437,3.4433,3.4444,3.4545,3.4589,3.4547,3.4756,3.4685,3.4699,3.4702,3.4757,3.4781,3.4804,3.4511,3.451,3.4508,0,0,3.4485,3.4489,3.4567,3.4575,3.4584,3.4563,3.4582,3.4579,3.4573,3.4651,3.4589,3.4633,3.4706,3.4716,3.4731,3.4904,3.4855,3.4918,3.5021,3.5079,3.51,3.5118,3.5178,3.52,3.4931,3.4931,3.4932,0,3.4584,3.4659,3.4614,3.4676,3.4694,3.462,3.4698,3.4708,3.473,3.4744,3.4697,3.4786,3.4789,3.4889,3.4931,3.4946,3.4965,3.4917,3.51,3.5118,3.5134,3.5191,3.5213,3.4939,3.4938,3.4937,3.4936,0,3.4778,3.4831,3.4893,3.4914,3.4939,3.501,3.4975,3.5006,3.4972,3.4956,3.5036,3.5036,3.5071,3.5093,3.5061,3.5188,3.5161,3.5109,3.5025,3.5167,3.522,3.5241,3.4949,3.4947,3.4945,3.4943,0,0,3.5028,3.502,3.5044,3.5051,3.5055,3.5095,3.5161,3.5194,3.5221,3.5239,3.5292,3.5355,3.5304,3.5321,3.529,3.534,3.5475,3.528,3.528,3.5315,3.5612,3.5651,3.5677,3.5442,3.5446,3.5449,3.561,0,3.5194,3.5306,3.5266,3.538,3.5427,3.5355,3.5412,3.5421,3.5407,3.5445,3.543,3.5474,3.5406,3.5415,3.5462,3.5448,3.5533,3.5436,3.549,3.5493,3.5488,3.5705,3.5747,3.5899,3.5631,3.5634,3.5637,0,3.5404,3.5428,3.5546,3.5539,3.5557,3.5609,3.5634,3.5672,3.5679,3.5666,3.5683,3.564,3.5704,3.562,3.5707,3.5641,3.5661,3.5658,3.5663,3.5665,3.5573,3.5712,3.5947,3.5969,3.5669,3.5666,3.5664,0,3.5571,3.5633,3.571,3.5719,3.5714,3.5752,3.5752,3.5754,3.5776,3.5798,3.5811,3.5842,3.5858,3.5883,3.5848,3.5791,3.5939,3.5853,3.5929,3.593,3.5963,3.5961,3.6203,3.5978,3.5978,3.5977,3.5977,0,3.5761,3.5836,3.5785,3.5833,3.5914,3.5867,3.5949,3.594,3.5943,3.5987,3.5928,3.5972,3.5924,3.5963,3.5937,3.6011,3.6019,3.6009,3.6001,3.6014,3.6015,3.6026,3.6014,3.5983,3.5982,3.5981,3.598,0,3.5962,3.5931,3.601,3.5998,3.5996,3.6056,3.6045,3.6089,3.607,3.6127,3.6138,3.6109,3.6151,3.6119,3.6161,3.6143,3.6241,3.6218,3.6238,3.6231,3.6307,3.63,3.6563,3.6595,3.6352,3.6354,3.6356,0,3.6084,3.614,3.6132,3.6157,3.6159,3.6201,3.6221,3.6177,3.6201,3.6212,3.6254,3.6291,3.6318,3.6388,3.6371,3.6402,3.638,3.647,3.6384,3.6394,3.6379,3.6375,3.638,3.6487,3.649,3.6492,3.6494,0,3.6305,3.6286,3.6317,3.6343,3.6369,3.6388,3.6402,3.6425,3.638,3.641,3.6451,3.6472,3.6513,3.655,3.6575,3.6574,3.6527,3.6521,3.654,3.6553,3.6561,3.6555,3.6283,3.6515,3.6513,3.6512,3.651,3.651,3.6468,3.6513,3.6514,3.655,3.6555,3.6569,3.6608,3.6593,3.6627,3.6656,3.6628,3.6677,3.6681,3.6709,3.6714,3.6752,3.6715,3.6743,3.675,3.6757,3.6767,3.6556,3.6757,3.6756,3.6756,3.6755,3.6755,0,3.6684,3.668,3.6714,3.6734,3.6762,3.6713,3.6725,3.6753,3.6796,3.6804,3.683,3.6877,3.6911,3.6896,3.6926,3.6959,3.6938,3.6969,3.6965,3.6966,3.6799,3.6779,3.6985,3.6985,3.6985,3.6985,3.6985,3.6985,3.6799,3.6871,3.6852,3.6925,3.6921,3.6968,3.6979,3.6991,3.6996,3.705,3.7077,3.7067,3.7064,3.7093,3.7123,3.7117,3.7131,3.7169,3.7156,3.7,3.6978,3.6956,3.6937,3.7173,3.7173,3.7318,3.732,3.7321]},{"header":{"parameterUnit":"m.s-1","parameterCategory":1,"la1":30.2991,"la2":30.254,"lo1":-89.0895,"lo2":-89.0444,"dy":0.0017,"dx":0.0017,"nx":28,"ny":28,"refTime":"2024-07-15T21:00:00:Z","depth":0,"parameterNumber":3,"parameterNumberName":"V-component_of_WINDS"},"data":[0,0,0,0,0,0,0,0,0,0,0,0,0,0,0,0,0,0,0,0,0,0,0,0,0,0,0,0,0,0,0,0,0,0,0,0,0,0,0,0,0,0,0,0,0,0,0,0,0,0,0,0,0,0,0,0,0,0,2.8472,2.8474,0,2.8666,2.8668,2.867,2.872,2.8719,2.8718,2.8717,2.8913,2.8919,2.8926,0,0,0,0,0,0,0,0,0,0,0,0,0,2.814,2.8146,2.8471,2.8474,2.8476,2.8665,2.8668,2.8671,2.872,2.8719,2.8717,2.8716,2.8911,2.8919,2.8926,0,0,0,0,0,0,0,0,0,0,0,0,0,2.8304,2.8148,2.8471,2.8524,2.8531,2.8665,2.8668,2.8671,2.8721,2.8719,2.8717,2.8715,2.8909,2.8918,2.8927,2.9022,0,0,2.8956,2.896,0,0,0,0,0,0,0,0,2.8295,2.8316,2.8514,2.852,2.8528,2.8667,2.8623,2.8789,2.8721,2.8648,2.8717,2.8714,2.8833,2.8848,2.8889,2.9031,2.904,2.8957,2.8963,2.8967,2.897,0,0,0,0,0,0,0,2.8283,2.8308,2.8548,2.8516,2.8525,2.8537,2.8558,2.8655,2.8748,2.8655,2.8659,2.8681,2.8836,2.8879,2.8893,2.9043,2.8957,2.8965,2.8971,2.8975,2.927,2.9272,0,0,0,0,0,0,2.8263,2.8298,2.8542,2.8554,2.8405,2.8544,2.8568,2.8624,2.8747,2.8764,2.8682,2.8683,2.8864,2.8882,2.8901,2.9018,2.8967,2.8976,2.8981,2.9268,2.9271,2.9273,0,0,0,0,0,0,2.8256,2.8284,2.8534,2.8427,2.846,2.8552,2.8614,2.8629,2.8672,2.8768,2.8785,2.871,2.8863,2.8887,2.8991,2.9026,2.898,2.8989,2.9266,2.9269,2.9272,2.9255,0,0,0,0,0,0,2.8246,2.8281,2.8319,2.8428,2.8466,2.8623,2.8617,2.8634,2.8689,2.8691,2.8798,2.8814,2.8864,2.8977,2.9,2.9038,2.8996,2.9263,2.9267,2.9271,2.9253,2.9257,2.9261,0,0,0,0,0,2.8234,2.8307,2.8321,2.835,2.8515,2.8625,2.8646,2.8702,2.8691,2.8729,2.8791,2.8811,2.9018,2.8987,2.9014,2.9055,2.9261,2.9266,2.9271,2.9251,2.9256,2.9261,0,0,0,0,0,0,2.82,2.8322,2.8339,2.845,2.8526,2.8633,2.8683,2.8706,2.8787,2.8786,2.8851,2.8875,2.8974,2.9025,2.8988,2.9152,2.9139,2.915,2.9115,2.9121,2.9125,2.9111,2.9004,0,0,0,0,0,2.8205,2.8285,2.8387,2.8475,2.8512,2.8591,2.8641,2.8677,2.8759,2.8791,2.886,2.8938,2.9021,2.9074,2.9155,2.926,2.9283,2.9302,2.9306,2.9309,2.9317,2.9374,2.9383,2.9289,2.9289,2.9289,0,0,2.8217,2.8294,2.834,2.847,2.8533,2.8613,2.8618,2.8702,2.8762,2.8804,2.8906,2.8959,2.905,2.9155,2.9204,2.92,2.9348,2.9315,2.9316,2.9323,2.938,2.9389,2.9397,2.9292,2.9291,2.9291,0,0,2.828,2.8346,2.8426,2.8489,2.8586,2.8637,2.8656,2.8759,2.8795,2.8899,2.8932,2.9003,2.9144,2.9207,2.9257,2.9341,2.9362,2.9365,2.9387,2.9442,2.9449,2.9456,2.9485,2.9494,2.9373,2.9373,2.9373,0,2.8283,2.8405,2.8463,2.8546,2.8601,2.8643,2.8723,2.8781,2.8899,2.8935,2.8929,2.9106,2.9171,2.929,2.931,2.935,2.9372,2.9354,2.9444,2.9451,2.9459,2.9486,2.9497,2.9373,2.9373,2.9373,2.9373,0,2.8403,2.8487,2.8539,2.8652,2.8713,2.8793,2.8863,2.8917,2.8947,2.8999,2.9102,2.9181,2.9278,2.9309,2.9339,2.9431,2.9426,2.9431,2.942,2.9466,2.9494,2.9505,2.9373,2.9373,2.9373,2.9373,0,0,2.8451,2.8593,2.8611,2.8662,2.877,2.8836,2.8917,2.9013,2.9057,2.9136,2.9205,2.9323,2.9328,2.9385,2.9423,2.9471,2.9531,2.9471,2.9474,2.9478,2.9635,2.963,2.9641,2.9545,2.9547,2.9549,2.9627,0,2.8526,2.8674,2.8728,2.885,2.8927,2.8966,2.9037,2.911,2.916,2.9232,2.9286,2.9368,2.9369,2.9404,2.9453,2.9513,2.9563,2.9508,2.9608,2.9611,2.9584,2.9656,2.9652,2.9722,2.9638,2.964,2.9641,0,2.8634,2.8714,2.8843,2.894,2.8974,2.9037,2.9128,2.9196,2.9279,2.9312,2.9374,2.9408,2.9494,2.9476,2.9594,2.9555,2.9599,2.9634,2.9638,2.965,2.9629,2.9668,2.9746,2.9755,2.9659,2.9658,2.9656,0,2.8654,2.8794,2.8889,2.8932,2.9047,2.909,2.914,2.9221,2.9275,2.9353,2.9388,2.9475,2.9523,2.9589,2.9645,2.9628,2.9757,2.9745,2.9785,2.9783,2.981,2.9808,2.9895,2.9839,2.9839,2.9839,2.9839,0,2.8733,2.881,2.89,2.8958,2.9045,2.9105,2.9189,2.9241,2.9313,2.9381,2.942,2.9483,2.9553,2.9625,2.9669,2.9758,2.978,2.9807,2.9818,2.9804,2.98,2.9833,2.983,2.9842,2.9841,2.9841,2.984,0,2.877,2.8834,2.894,2.904,2.9067,2.9126,2.9212,2.9269,2.9319,2.9405,2.9428,2.9508,2.9593,2.9656,2.9767,2.9796,2.9892,2.9903,2.9864,2.9869,2.9905,2.9901,3.0016,3.0034,2.9967,2.9968,2.9968,0,2.8816,2.8876,2.8982,2.9031,2.9081,2.9159,2.9213,2.9273,2.9328,2.9426,2.9471,2.9559,2.9633,2.9768,2.9835,2.9919,2.9932,2.9967,2.9945,2.9928,2.9932,2.9927,2.9933,2.997,2.997,2.9971,2.9971,0,2.8889,2.8917,2.8995,2.9082,2.9145,2.9217,2.929,2.9327,2.94,2.9459,2.9547,2.9605,2.9717,2.9804,2.9895,2.9945,2.997,2.9977,2.9991,2.9977,2.9951,2.9964,2.9872,2.9974,2.9974,2.9974,2.9974,2.9974,2.8932,2.8987,2.907,2.9153,2.9214,2.928,2.9338,2.9396,2.9471,2.9567,2.9598,2.9689,2.9768,2.9893,2.9944,3.0015,3.0014,3.0034,3.0039,3.0042,3.0041,2.994,3.0032,3.0032,3.0032,3.0032,3.0032,0,2.9007,2.9062,2.9138,2.9238,2.9303,2.9321,2.9401,2.9454,2.9534,2.9606,2.9678,2.9778,2.9862,2.9935,3.0021,3.0064,3.0077,3.0085,3.0082,3.0093,3.0038,3.0017,3.0072,3.0072,3.0072,3.0072,3.0072,3.0072,2.9053,2.9146,2.9183,2.9306,2.936,2.945,2.9494,2.9554,2.9612,2.9722,2.9792,2.9839,2.9911,3.0003,3.008,3.0099,3.0129,3.0133,3.0154,3.0102,3.0097,3.0092,3.0073,3.0139,3.0139,3.0204,3.0204,3.0205]}]]